Theta_e
296 297 298 298 298 299 300 300 300 300 300 301 302 303 304 305 305 306 307 307 308 310 311 313 314 315 315 317 319 320 321 322 323 323 323 323 323 323 323 323 322 322 322 322 322 322 322 323 323 324 324 324 324 324 324 324 325 326 327 327 328 329 329 330 330 331 331 333 334 335 337 338 338 338 339 339 339 339 339 338 337 336 335 335 335 334
297 298 299 298 298 298 299 299 300 300 300 300 302 303 303 304 304 305 306 307 309 310 312 313 314 314 314 315 318 320 321 321 322 322 323 323 323 322 322 322 322 322 322 322 322 322 322 322 323 323 324 324 323 323 323 324 324 325 325 326 327 328 328 329 329 330 330 331 333 334 335 337 338 338 338 338 339 338 338 337 336 335 334 334 334 334
297 298 299 299 297 297 298 298 299 300 300 300 301 302 303 304 304 305 306 308 309 311 313 313 313 313 313 314 317 319 320 320 321 321 322 322 322 322 322 322 322 321 321 321 321 321 321 321 322 322 323 323 323 323 323 323 323 323 324 324 325 326 327 328 328 328 329 330 331 332 334 335 336 337 337 337 337 336 336 335 335 335 334 334 334 333
296 298 299 300 299 298 298 298 299 300 301 301 302 303 303 304 304 306 307 308 309 310 312 313 312 312 312 313 314 317 319 320 320 321 321 322 322 322 322 322 321 321 321 321 321 321 321 321 321 321 322 322 322 322 322 323 323 323 323 323 323 324 325 325 326 326 327 327 329 330 332 333 334 335 335 335 334 334 334 334 334 334 334 333 333 333
295 296 298 299 300 299 298 298 299 300 301 302 303 303 303 304 305 306 307 308 309 310 312 312 312 311 311 312 313 316 318 319 320 320 321 321 322 322 322 322 321 321 321 320 320 320 321 321 321 321 321 322 322 322 322 322 322 322 322 322 322 322 323 323 323 324 324 325 326 327 329 330 331 332 332 332 333 333 333 334 335 335 334 333 333 333
294 295 297 298 299 299 299 299 300 300 301 301 302 302 303 304 305 306 307 308 308 310 311 311 311 310 310 311 312 315 317 318 319 319 320 321 321 322 322 322 321 321 320 320 320 320 320 320 321 321 321 321 321 322 322 322 322 322 322 322 321 322 322 322 322 322 322 323 324 324 325 326 327 328 329 330 331 331 332 333 334 335 334 333 332 332
294 295 296 296 296 297 297 298 299 300 300 300 301 302 302 303 304 305 305 306 308 309 310 310 310 310 310 311 312 314 316 317 317 319 319 320 321 321 322 322 321 321 321 320 320 320 320 320 320 321 321 321 321 321 322 322 322 322 321 321 321 321 321 322 322 322 322 322 322 322 323 323 324 326 327 328 328 329 330 331 333 333 333 332 332 333
294 295 295 295 295 296 296 297 298 299 299 299 300 300 301 301 302 303 304 306 307 308 309 309 309 309 309 310 311 313 314 315 316 317 318 319 320 321 321 321 321 321 321 320 320 320 320 320 320 320 321 321 321 321 321 321 321 321 321 320 320 321 321 321 321 321 321 321 321 321 321 321 322 323 324 325 326 326 327 328 330 331 332 331 332 332
292 293 293 294 295 296 296 297 297 298 298 299 299 299 299 300 301 302 304 305 306 307 308 308 308 308 309 309 310 312 313 314 315 316 317 318 319 320 321 321 321 321 321 321 320 320 320 320 320 320 320 321 321 321 321 321 321 320 320 319 319 320 320 321 321 321 321 321 320 320 320 320 321 321 322 323 323 324 324 325 327 328 329 330 331 331
290 290 291 292 294 295 295 295 296 297 297 298 299 299 299 299 300 301 302 303 304 306 307 307 307 308 308 309 310 311 312 313 315 316 317 317 318 320 320 321 321 321 321 320 320 320 320 320 320 320 320 320 321 321 321 320 320 319 319 318 318 319 319 320 321 321 321 320 320 320 320 320 320 320 321 321 322 322 322 323 324 325 327 328 329 330
287 288 288 290 292 293 292 292 293 294 295 295 296 297 298 297 297 298 298 300 303 305 306 307 307 307 308 308 309 310 311 312 314 316 317 317 318 319 319 320 320 320 320 320 320 320 319 319 320 320 320 320 320 320 320 320 319 318 318 318 318 318 318 319 320 320 320 320 320 320 320 320 320 320 320 321 321 321 321 322 322 323 324 326 327 328
285 286 287 288 288 289 288 289 290 291 291 291 291 291 291 292 292 293 294 297 300 303 305 305 306 306 307 308 308 309 310 311 312 315 316 317 318 319 319 319 319 320 320 320 319 319 319 319 319 319 319 319 319 319 319 319 318 317 317 317 317 317 318 318 319 319 319 320 320 320 320 321 320 320 320 320 320 320 320 321 321 321 322 324 325 327
283 284 284 285 286 285 285 286 286 287 287 287 287 286 287 288 290 291 292 295 298 302 304 304 305 306 306 307 308 309 309 310 311 313 314 315 317 318 319 319 320 320 321 320 320 319 319 318 318 319 319 319 319 318 318 318 317 317 316 316 317 317 317 318 318 319 319 319 319 320 320 320 320 320 320 320 320 320 320 320 320 321 322 323 324 325
281 282 282 283 283 283 283 284 284 284 284 285 285 286 287 288 289 290 291 293 296 300 303 304 304 304 305 306 307 309 309 309 310 311 311 312 314 316 318 319 319 320 321 321 320 320 319 318 318 318 318 318 318 318 318 317 317 316 316 316 316 317 317 317 318 318 318 319 319 319 320 320 320 320 320 320 320 319 319 319 320 321 321 322 323 324
280 280 280 281 281 282 282 283 283 283 283 284 285 286 287 287 288 289 289 290 292 296 300 302 303 304 304 305 307 308 309 309 309 309 309 309 311 313 316 318 319 319 320 320 320 320 319 319 319 319 318 318 318 318 318 318 317 316 316 316 316 316 317 317 317 317 318 318 319 319 319 319 319 320 320 319 319 319 318 319 319 320 321 321 322 323
280 280 279 279 280 281 282 282 282 282 283 284 285 285 285 285 286 287 288 288 290 293 297 300 301 302 302 304 306 308 308 308 308 309 308 308 309 311 314 317 317 318 318 318 319 319 320 320 320 320 319 318 318 318 318 318 317 316 316 316 316 316 316 316 316 317 317 318 318 318 319 319 319 319 319 318 318 318 318 318 318 319 320 321 321 321
279 279 279 279 279 280 281 282 282 282 283 283 284 284 284 285 286 286 287 288 289 292 295 298 299 299 299 302 305 307 309 308 308 307 307 307 308 310 312 314 315 315 314 314 315 317 319 320 320 320 320 318 317 317 317 318 317 317 316 316 316 316 316 316 316 317 317 318 318 318 318 318 318 318 318 318 318 317 317 318 318 318 318 319 319 319
279 279 278 279 279 280 281 281 282 282 283 283 283 284 284 285 286 286 287 288 289 290 293 296 299 299 298 300 303 306 309 309 308 307 307 306 307 309 311 313 314 313 312 311 312 313 316 318 320 320 319 318 317 317 317 317 317 317 316 316 316 316 316 316 316 317 317 318 318 318 318 318 317 317 317 316 316 317 317 317 317 317 317 317 318 317
278 278 278 278 279 280 281 281 281 282 282 283 283 283 284 284 285 286 286 287 288 289 291 294 297 299 300 300 303 306 309 309 308 307 305 305 306 307 309 311 311 311 309 309 309 310 312 315 317 317 316 316 316 316 316 317 317 316 316 316 316 316 316 316 317 317 317 317 317 317 317 316 316 316 316 316 316 316 316 316 316 316 316 316 316 316
278 278 278 279 279 280 280 281 282 282 283 284 284 284 283 283 284 284 285 286 287 289 290 292 296 299 301 301 303 306 309 309 308 306 305 304 305 306 307 309 309 308 306 306 307 309 310 313 315 315 315 315 315 316 316 316 316 316 316 316 316 316 316 316 317 317 316 316 316 315 315 315 315 315 315 315 315 315 315 315 314 314 314 314 314 314
278 278 279 280 280 280 280 281 282 283 285 285 284 283 283 283 283 283 284 285 286 287 289 291 294 297 299 301 303 306 309 309 307 305 304 304 304 305 306 306 306 305 304 305 306 308 309 311 314 315 315 315 315 315 316 316 316 316 316 316 316 316 316 316 316 316 315 315 315 314 314 314 313 313 313 313 313 313 313 313 313 313 313 313 312 312
279 279 280 281 281 281 281 282 283 284 285 285 284 283 282 282 282 282 283 284 285 286 287 289 291 293 294 296 300 304 307 308 306 305 303 302 302 303 305 305 305 304 303 304 305 307 309 310 312 314 315 315 315 315 315 316 316 316 316 316 315 315 315 315 315 314 314 314 313 313 313 312 312 312 311 311 311 311 311 311 311 311 311 311 310 310
280 280 280 281 282 282 282 283 283 284 285 285 284 284 283 282 282 282 283 283 284 285 286 288 289 291 292 295 299 303 306 307 307 305 303 301 301 302 304 305 304 303 302 304 305 306 308 309 311 312 314 314 314 314 314 315 315 315 315 314 314 314 314 313 313 313 313 312 312 312 311 311 311 310 310 310 310 310 310 310 310 310 310 310 309 309
280 280 281 281 282 283 283 283 283 284 285 285 285 285 284 284 283 283 284 284 285 285 286 287 289 290 293 296 300 302 304 306 307 305 303 301 301 302 303 304 303 303 302 304 305 306 307 308 309 311 313 313 313 313 314 314 314 314 314 313 313 312 312 312 312 312 311 311 311 310 310 310 309 309 309 309 308 308 308 308 308 309 308 308 308 308
281 281 282 282 283 284 284 284 284 285 285 285 285 285 284 284 284 284 284 285 286 287 287 288 289 291 293 298 300 301 301 303 305 305 303 301 301 302 304 304 303 302 302 303 304 305 305 306 307 309 311 312 312 312 312 312 312 312 312 312 312 311 311 310 310 310 310 310 309 309 309 308 308 308 307 307 307 307 307 307 307 307 306 306 306 306
283 283 283 284 284 285 285 285 286 286 287 286 285 284 283 282 282 282 283 284 285 285 287 288 289 291 294 298 299 300 300 302 304 304 303 302 301 302 303 303 303 302 302 303 304 304 304 304 305 306 308 310 311 311 311 311 311 311 310 310 310 310 309 309 309 309 309 308 308 308 307 307 307 306 306 306 306 305 305 305 305 305 305 304 305 304
284 284 284 284 284 285 285 285 285 286 287 287 286 285 283 281 280 280 280 280 280 281 282 285 287 291 294 297 298 299 299 302 302 303 304 303 302 301 302 303 303 302 301 302 303 303 303 303 304 304 305 307 308 310 310 310 310 310 309 309 309 309 308 308 308 307 307 307 307 307 306 306 306 305 305 305 304 304 304 304 303 303 303 303 303 303
283 283 283 283 283 283 283 283 284 285 286 286 286 286 283 281 279 278 277 278 278 279 280 283 287 290 294 296 297 298 297 298 297 298 302 303 302 301 301 303 302 302 301 301 302 303 303 303 303 303 304 305 306 308 308 308 308 308 308 308 307 307 307 307 306 306 306 306 306 306 305 305 305 304 304 304 303 303 303 303 303 302 302 301 301 301
281 282 282 282 282 282 282 282 282 283 284 285 285 285 283 281 279 278 278 278 279 279 280 282 286 289 293 295 296 296 296 294 292 293 299 301 301 301 302 302 302 301 301 300 300 300 301 301 302 302 303 304 304 305 306 307 307 307 307 306 306 306 306 306 306 305 305 305 305 305 305 304 304 304 304 303 303 303 302 302 302 301 301 300 299 300
278 279 279 279 280 280 280 279 280 281 283 284 284 283 282 281 280 279 279 279 279 278 279 280 283 286 290 294 296 296 295 292 291 291 295 300 300 301 301 301 301 301 301 299 298 297 298 299 301 302 302 303 303 304 304 304 304 305 305 305 305 305 305 305 305 305 305 304 304 304 304 304 303 303 303 302 302 302 302 301 301 300 299 298 298 298
276 276 276 276 277 277 278 278 278 279 281 281 282 282 281 281 280 280 280 279 279 278 278 279 280 282 285 291 294 296 295 291 290 291 292 298 300 300 301 300 301 301 301 299 297 295 295 296 298 300 302 302 302 302 303 303 303 303 303 303 303 304 304 304 304 304 304 303 303 303 303 303 303 302 302 302 302 301 301 301 300 299 298 297 297 297
275 275 275 276 276 276 277 277 277 278 278 279 279 280 280 280 280 280 280 280 279 279 278 278 279 280 282 285 288 291 291 288 289 290 290 296 300 300 301 300 300 300 301 300 299 296 295 295 296 298 300 300 301 301 302 302 302 302 302 302 302 302 303 303 303 303 303 303 303 302 302 302 302 301 301 301 301 301 300 300 299 298 297 296 296 296
275 275 275 275 275 276 276 276 276 277 277 277 278 278 279 280 280 280 280 280 280 279 279 278 278 279 280 281 283 285 285 285 287 289 290 294 298 300 300 300 300 300 301 300 299 298 297 295 296 296 296 297 298 298 299 301 301 302 302 301 301 301 302 302 302 302 301 301 301 301 301 301 301 301 301 301 300 300 300 300 299 298 297 296 295 295
274 275 275 275 275 275 275 275 276 276 276 277 277 278 278 279 279 280 280 280 280 280 280 279 279 279 279 280 281 283 283 284 287 289 289 290 295 300 300 299 299 299 299 299 299 298 297 296 295 294 293 293 293 294 295 296 298 299 300 300 300 300 300 301 300 300 300 300 300 299 300 300 300 301 300 300 300 300 300 300 299 298 298 296 295 294
273 274 274 274 274 274 274 275 275 275 276 276 277 277 278 278 279 279 280 280 280 280 280 280 280 280 279 279 280 281 282 283 285 288 289 288 293 299 299 299 299 299 298 298 297 296 295 295 294 293 291 290 290 290 291 292 294 295 296 297 297 297 298 298 299 298 298 298 298 298 298 298 298 299 299 299 299 300 300 299 299 299 298 297 296 294
272 272 273 273 273 273 273 274 274 275 275 275 276 277 277 278 278 279 279 279 280 280 281 281 281 282 282 281 281 281 281 283 285 287 289 287 290 295 299 298 298 298 298 297 296 295 294 293 293 292 291 289 288 288 289 290 291 292 292 293 293 294 295 296 297 297 296 296 296 296 296 296 297 297 298 299 299 299 299 299 299 298 298 297 297 295
271 272 272 272 272 272 273 273 274 274 274 275 275 276 277 277 278 279 279 279 279 280 280 281 282 283 284 284 283 283 283 284 285 286 288 288 290 292 296 297 298 298 297 296 295 294 293 292 292 291 290 289 288 288 288 289 290 290 290 290 291 292 293 294 295 295 295 295 294 295 295 295 296 296 297 298 299 298 298 298 298 298 297 297 297 296
271 271 271 272 272 272 272 273 273 274 274 275 275 276 277 277 278 278 279 279 279 279 280 280 281 282 284 286 286 285 285 286 285 286 287 289 291 292 294 296 297 298 298 297 295 294 293 291 290 289 289 288 288 289 289 289 288 288 288 289 290 290 291 292 293 293 294 294 294 294 295 295 295 295 296 296 296 295 295 295 296 296 296 296 296 296
270 270 271 271 272 272 272 272 273 274 275 275 276 276 277 277 278 279 279 279 279 279 280 280 281 282 284 285 286 287 287 287 287 287 287 290 293 294 294 295 295 296 297 297 296 295 293 292 290 289 288 288 288 288 289 289 288 287 288 288 288 289 289 290 291 292 292 292 293 293 292 292 293 293 293 293 293 292 292 292 293 293 293 293 293 294
270 270 270 271 272 272 272 273 274 274 275 276 276 277 277 277 278 278 279 279 279 280 280 280 282 283 285 286 287 287 287 288 289 290 289 290 292 293 294 294 294 295 295 296 296 295 293 292 291 290 290 289 288 287 288 288 288 289 289 288 287 287 288 288 289 289 290 290 290 290 290 290 290 290 290 291 291 291 290 290 291 291 291 291 290 290
270 270 270 271 272 273 273 274 275 275 275 275 275 275 276 276 276 277 278 278 279 279 279 280 282 283 285 285 286 286 287 288 289 290 289 289 290 293 294 293 293 293 294 294 294 294 293 292 291 290 290 289 288 288 287 288 289 290 290 288 286 286 287 288 288 288 289 289 289 289 289 289 289 289 288 289 289 289 289 289 289 289 289 289 288 288
270 270 270 271 271 272 273 274 275 275 275 275 275 275 275 275 275 276 276 277 277 278 278 279 280 281 283 284 285 285 286 287 288 289 289 289 290 292 293 293 292 292 292 292 292 292 292 292 291 290 289 289 288 288 287 288 289 289 288 287 286 286 287 288 288 288 288 288 288 289 289 288 287 287 287 287 287 287 288 288 288 288 288 287 286 286
270 270 270 271 272 272 274 274 275 275 275 274 274 274 274 275 275 276 276 276 276 277 277 278 279 280 281 282 283 284 285 286 287 289 290 289 290 290 291 291 292 292 292 291 290 290 291 291 290 290 290 290 289 288 287 287 286 287 287 287 286 286 285 285 286 287 287 287 287 287 287 286 285 285 285 285 285 285 286 287 287 287 287 285 284 284
270 270 271 271 272 272 273 273 273 273 274 273 273 274 274 275 276 276 276 276 276 276 277 277 278 279 280 280 281 282 284 285 286 287 289 290 290 290 290 290 290 291 291 290 290 289 289 289 289 289 290 290 289 288 287 286 285 285 286 287 287 285 284 284 285 285 286 285 286 286 285 285 284 283 283 283 283 283 283 283 283 283 284 284 283 283
270 270 271 271 272 272 272 272 273 273 273 273 273 273 274 275 275 275 275 275 276 276 276 276 277 277 277 278 279 281 282 283 284 285 286 288 290 290 290 289 289 290 290 290 289 289 288 287 288 288 289 289 288 287 286 285 285 285 286 286 285 285 284 284 284 284 283 283 283 284 284 284 283 282 282 281 281 281 281 282 282 282 282 283 282 282
270 270 270 270 270 271 271 272 272 272 273 273 273 273 274 274 275 275 275 275 275 275 276 276 276 275 275 276 278 279 280 281 282 283 284 285 286 287 288 288 288 288 288 288 288 289 288 288 287 287 287 287 286 286 285 285 285 284 284 284 284 283 283 283 283 283 283 282 282 282 283 283 283 282 281 280 280 280 281 281 281 281 281 282 282 282
269 269 269 269 270 270 271 271 272 272 272 272 272 273 273 274 274 274 274 275 275 275 276 275 275 274 274 275 276 276 277 278 280 281 283 284 284 285 286 286 287 287 287 287 287 287 287 287 287 287 286 285 284 283 284 284 284 283 283 283 283 283 282 282 282 283 282 282 282 282 282 282 282 281 280 280 279 279 279 280 280 281 281 281 282 282
269 269 269 269 269 269 270 271 271 271 271 272 272 272 273 274 274 274 273 274 274 275 275 275 274 274 273 274 275 276 276 277 278 279 281 282 283 284 284 285 285 285 286 286 286 286 285 286 286 286 285 284 283 282 282 282 282 283 283 283 282 282 281 281 282 282 282 282 282 282 282 282 281 280 280 279 279 279 279 279 279 280 280 281 281 282
269 269 269 269 269 269 269 270 270 271 271 271 271 272 272 274 274 274 273 274 274 274 274 274 273 273 273 273 274 275 276 276 276 277 279 280 282 283 284 284 284 284 284 284 284 284 284 284 285 285 285 284 283 281 281 281 281 282 282 282 281 281 280 280 281 281 282 282 282 282 282 282 281 281 280 279 278 278 278 278 278 279 279 280 280 281
269 269 269 269 269 269 269 270 270 270 271 271 271 271 272 272 273 273 273 273 273 273 273 273 273 273 273 273 273 274 274 274 275 276 277 278 280 282 283 284 284 284 283 283 283 283 282 283 283 284 286 286 284 282 281 281 281 281 281 281 281 281 280 280 280 281 281 281 281 281 281 281 281 281 280 279 278 277 277 278 278 278 278 279 280 281
269 269 269 269 269 269 269 269 270 270 271 271 271 271 271 272 272 272 272 273 273 273 273 273 273 273 273 273 273 273 274 274 274 274 275 277 279 280 282 283 284 284 283 283 282 282 281 280 279 280 283 285 286 284 282 281 280 280 280 280 280 280 280 280 280 280 281 280 280 280 280 280 280 280 280 279 278 277 277 277 277 277 278 278 279 280
Wind_Speed
6 6 6 7 6 3 2 1 1 1 4 4 4 4 4 4 5 6 8 10 12 13 12 10 9 8 7 7 7 8 8 8 8 8 8 9 9 9 9 9 9 8 8 8 8 9 9 11 13 15 17 19 21 22 23 22 21 19 17 16 17 18 19 19 19 20 22 23 24 25 25 26 26 25 24 24 23 23 23 22 21 20 20 20 20 20
6 5 4 6 6 4 3 2 2 2 3 4 4 4 3 4 4 5 6 8 11 12 11 9 8 7 6 6 6 8 8 7 6 6 7 8 9 10 10 10 9 9 9 9 9 9 9 10 11 13 15 18 20 21 23 23 22 21 20 18 18 18 19 19 19 20 20 22 23 25 25 26 26 26 25 25 24 24 23 22 21 21 20 20 20 20
4 4 3 3 3 3 2 2 3 3 4 4 4 4 4 4 3 3 4 6 9 10 11 9 7 6 6 5 6 7 7 6 6 6 7 8 9 10 10 10 10 10 10 10 10 10 10 10 11 12 14 16 18 20 22 23 24 23 22 20 18 18 18 19 19 19 19 20 21 23 24 25 25 26 26 25 25 24 23 22 21 21 20 20 19 19
4 3 2 2 2 2 2 2 2 3 3 4 4 5 5 4 3 3 4 6 8 9 10 9 7 6 5 5 5 6 6 6 6 6 7 8 8 9 11 11 11 11 11 11 11 11 11 10 11 11 12 14 16 18 21 23 25 25 24 21 19 17 17 17 18 18 17 18 19 20 21 22 23 24 25 25 24 23 22 21 21 21 20 20 19 19
3 2 2 2 2 2 2 1 2 2 2 3 4 4 4 4 3 3 4 6 7 9 9 8 7 6 5 5 5 5 5 5 6 7 8 8 9 10 11 12 12 13 12 12 12 12 12 11 11 11 12 13 14 16 19 23 25 26 25 23 20 17 16 16 17 17 16 16 17 18 19 19 20 21 22 23 22 22 21 21 21 21 20 19 19 19
3 3 2 2 2 2 2 2 2 2 2 3 3 4 4 4 4 4 5 6 7 7 7 7 6 5 5 5 5 5 5 5 6 7 8 9 10 10 11 12 13 14 14 13 13 12 12 12 12 12 12 12 13 15 17 21 24 26 26 24 21 18 17 17 17 16 16 16 16 16 17 17 18 19 21 21 21 21 21 21 21 21 20 19 19 19
3 2 2 2 2 2 2 3 3 3 3 3 3 3 4 4 4 4 5 6 6 6 6 5 5 5 5 5 4 4 4 5 6 7 8 10 11 11 12 13 13 14 14 14 14 14 13 13 12 12 12 12 12 13 15 18 22 25 27 26 24 21 19 18 17 17 16 16 16 16 16 16 17 18 20 20 20 19 19 19 19 19 19 18 19 20
2 1 1 1 2 2 2 2 2 3 3 3 3 3 4 4 4 5 5 6 6 6 5 4 4 4 3 3 3 3 2 3 4 5 6 8 10 11 12 13 14 15 15 15 15 14 14 14 13 12 12 11 12 12 13 16 19 22 25 26 25 24 21 20 18 17 17 16 15 15 15 15 16 17 18 18 18 17 16 15 15 16 17 18 19 20
3 2 2 2 2 2 2 2 2 2 3 3 3 4 4 4 4 4 4 5 5 5 4 4 3 3 2 2 1 1 1 2 2 3 4 5 7 9 11 12 14 15 15 16 16 15 15 14 14 13 12 11 11 11 12 14 16 19 22 24 24 24 22 21 20 18 17 15 14 14 14 15 15 15 15 15 15 15 13 12 12 13 15 17 19 20
4 4 4 3 3 3 3 3 4 4 5 4 3 3 2 3 4 4 4 4 3 3 3 4 3 3 2 1 0 1 1 2 3 4 5 6 6 7 9 10 11 13 15 15 16 16 16 15 15 14 12 11 11 11 11 12 14 16 18 20 21 22 22 21 20 19 17 15 13 13 14 14 14 14 14 14 14 13 13 11 11 11 14 16 19 21
5 5 4 4 3 4 4 4 5 6 8 6 5 4 4 5 6 6 7 6 5 3 3 3 3 3 2 2 1 0 0 1 2 3 5 7 7 8 8 9 9 11 13 14 15 16 16 16 15 15 13 12 11 10 10 11 13 14 16 17 18 20 21 21 21 20 18 15 13 13 14 14 14 13 13 12 12 12 12 12 11 12 14 16 19 22
4 4 4 3 3 4 4 4 4 5 6 6 6 6 6 6 6 6 7 8 7 6 4 3 2 2 2 1 1 1 1 2 2 2 3 4 6 6 7 7 8 9 10 12 14 15 16 17 17 16 14 13 12 11 10 10 11 13 14 16 17 18 20 21 21 20 19 16 14 14 14 14 13 12 12 11 11 10 11 11 12 13 15 17 20 22
4 4 4 4 4 4 4 5 5 5 5 6 6 6 6 6 5 5 5 7 8 8 6 4 3 2 1 1 1 1 1 2 2 2 2 3 4 4 4 5 5 6 7 8 9 11 14 16 17 16 15 14 13 12 11 11 11 13 14 15 16 17 18 19 20 20 19 17 16 14 14 13 12 11 11 11 10 10 10 11 12 13 16 18 20 22
5 5 4 4 5 5 5 5 5 5 5 5 5 5 5 5 6 6 6 7 8 8 8 6 5 3 2 1 1 0 0 1 1 1 1 2 2 3 4 4 4 5 5 5 6 7 10 12 13 13 15 14 14 13 12 12 12 13 14 15 16 17 17 18 18 19 19 18 16 14 13 12 11 12 12 12 11 10 10 10 11 12 14 16 18 20
6 6 5 5 5 5 5 5 5 5 5 4 4 5 5 6 6 6 6 7 8 8 8 7 5 4 2 1 1 0 1 0 0 1 1 1 1 2 3 4 4 4 5 5 5 6 8 9 9 9 11 13 14 13 13 12 13 14 15 15 16 16 17 17 17 17 18 17 16 14 13 12 12 12 13 12 12 12 11 11 11 12 13 14 16 18
6 6 6 6 5 5 5 5 5 5 5 5 5 5 5 6 6 6 6 7 7 7 7 6 5 3 2 2 1 1 0 0 0 0 1 1 2 1 2 3 4 4 5 5 5 5 6 7 8 8 9 12 14 14 14 13 14 15 16 16 16 17 16 16 16 16 16 16 15 14 13 13 13 13 14 14 14 14 15 15 16 18 19 20 21 22
6 6 6 6 5 5 5 5 5 5 5 5 5 4 5 5 5 5 5 5 5 5 5 5 4 3 2 2 2 1 1 0 1 1 1 1 2 2 1 3 4 4 4 4 4 5 5 6 7 7 8 11 14 16 16 15 16 16 17 17 17 17 17 16 16 15 15 15 14 13 13 13 14 14 16 17 18 19 20 21 23 24 25 26 25 25
5 5 5 5 5 5 5 5 5 5 5 5 5 5 4 4 4 4 4 4 5 5 5 5 4 3 2 2 2 2 1 1 1 1 1 1 2 2 2 1 3 3 3 2 1 2 4 5 6 7 7 12 15 16 17 16 16 17 18 19 19 18 18 17 16 15 14 13 13 13 14 14 16 17 19 21 23 24 25 26 27 28 28 28 27 27
5 5 6 6 5 5 5 5 5 6 6 6 6 6 6 5 4 4 4 4 4 5 5 6 5 3 2 2 2 2 1 1 2 2 2 2 2 2 2 1 2 3 2 2 2 1 1 3 5 7 9 13 16 17 17 17 17 17 18 19 19 19 19 18 16 15 13 13 13 14 16 18 19 21 23 25 26 27 27 28 29 29 29 29 28 28
5 5 6 6 6 6 5 5 6 6 7 7 6 6 6 6 5 5 4 4 4 4 5 6 6 5 3 2 2 2 2 2 2 2 2 2 3 3 2 1 3 3 3 2 2 2 1 2 4 7 10 14 16 18 18 17 17 17 17 18 18 19 19 18 17 15 15 16 17 19 20 22 23 25 26 26 27 27 27 28 29 29 30 30 29 29
5 5 5 5 5 5 5 5 6 8 8 8 7 6 6 6 6 5 5 5 5 5 5 5 5 5 5 5 5 4 2 2 3 2 1 1 2 3 2 2 3 4 3 2 2 2 2 2 3 5 8 13 16 18 18 18 17 17 16 16 17 17 18 19 19 20 21 23 24 24 25 25 26 26 27 27 27 27 27 28 29 30 31 31 31 30
4 4 5 5 5 5 5 6 7 9 10 9 7 6 6 6 6 6 6 5 5 6 6 6 6 6 7 8 8 6 2 2 2 2 1 1 2 2 1 1 3 4 4 2 2 2 2 2 2 4 8 13 16 17 18 18 18 17 17 18 18 20 21 23 25 27 28 29 29 29 29 29 29 29 29 29 29 29 29 29 30 31 31 31 31 31
4 4 4 5 5 5 5 5 6 7 8 7 6 6 5 6 6 7 6 6 6 6 6 7 7 7 8 8 8 6 2 2 3 2 0 1 2 2 1 1 3 4 4 3 2 3 3 3 2 3 8 14 16 17 18 19 19 20 21 22 24 25 27 29 30 31 33 33 33 33 33 32 32 32 32 32 31 31 30 30 31 31 32 31 31 31
4 4 4 5 5 5 5 5 6 6 6 6 5 5 5 6 6 6 6 6 6 6 6 7 7 8 7 7 6 4 1 2 3 2 1 1 2 2 1 2 4 5 5 3 3 4 5 5 4 3 5 13 17 19 20 21 22 24 26 27 29 30 31 32 33 34 34 35 36 36 36 35 35 34 34 34 33 32 32 32 32 32 32 32 31 31
6 6 6 7 8 9 8 8 8 9 8 6 5 5 6 7 7 7 6 6 6 6 6 6 7 6 5 5 4 2 1 2 2 2 1 0 1 1 1 3 5 6 5 4 4 4 6 6 6 5 5 10 16 20 23 24 26 28 29 31 32 33 34 35 35 35 36 36 37 37 37 37 36 36 36 35 34 34 33 33 33 33 32 32 32 31
11 12 12 13 15 16 16 15 15 15 15 11 8 6 6 7 7 6 5 4 5 5 6 6 5 5 4 3 2 1 1 2 2 2 1 1 1 1 1 3 5 6 6 4 4 5 7 7 7 6 6 8 14 20 24 27 28 30 31 32 33 34 35 36 36 37 37 37 38 38 38 37 37 37 37 36 36 35 35 34 34 33 33 32 31 30
18 18 19 19 19 19 19 19 19 19 20 17 15 11 8 7 6 6 5 5 6 6 5 5 5 5 4 3 2 1 1 2 2 2 1 1 1 2 2 4 5 7 8 6 6 7 9 8 8 7 7 7 10 16 25 28 30 31 32 33 34 35 36 36 37 37 37 38 38 38 38 38 37 37 37 37 37 37 36 35 34 32 30 28 26 25
19 19 19 19 19 19 19 18 18 19 19 19 19 16 11 7 6 6 6 6 6 5 5 5 5 4 3 2 2 1 1 2 2 2 2 0 1 2 3 4 6 8 8 7 7 8 10 9 9 8 8 8 10 14 21 25 28 30 31 32 33 34 35 36 36 37 37 38 38 38 38 38 37 37 37 37 37 36 36 34 33 30 25 21 17 16
16 17 17 18 18 18 17 16 16 17 18 19 18 16 11 7 5 5 6 6 6 5 5 5 5 5 4 3 2 1 1 1 2 2 2 1 1 2 3 5 6 7 9 7 7 7 9 8 7 7 8 9 10 12 15 19 23 25 27 30 32 33 34 35 36 36 36 37 37 37 37 37 36 36 36 36 36 35 34 32 29 25 19 15 13 12
13 13 14 15 15 15 14 13 13 14 16 17 17 15 10 7 5 5 5 5 5 5 5 5 5 6 5 4 2 1 1 1 2 2 2 1 1 2 3 5 6 7 8 8 7 7 6 5 5 6 7 9 10 10 10 12 14 16 18 23 25 28 31 33 34 34 35 35 36 36 36 36 35 35 34 34 34 33 32 30 25 19 13 12 11 11
11 11 10 11 11 10 10 9 10 11 12 14 13 12 9 7 5 5 4 5 4 5 5 5 5 5 6 4 3 2 1 1 2 3 2 1 1 2 3 4 5 6 7 8 8 7 6 4 4 4 6 8 8 8 8 9 10 11 12 14 17 21 27 29 31 31 33 33 34 34 34 34 34 33 33 32 32 31 30 27 22 17 12 11 11 11
9 9 8 8 8 8 8 8 8 8 8 9 9 9 8 8 6 5 5 4 4 4 4 5 5 5 5 4 3 2 1 2 3 4 3 1 0 1 2 3 4 5 5 7 8 9 7 5 3 3 5 6 6 7 8 8 9 10 11 12 13 16 22 23 25 26 28 30 32 32 33 33 33 32 32 31 31 30 28 26 21 16 12 12 12 12
9 8 7 8 7 7 7 7 7 7 7 7 7 7 7 7 7 7 6 5 4 4 4 4 5 5 5 4 4 3 2 2 3 5 4 2 0 1 2 2 3 4 5 6 8 9 8 7 5 4 4 5 5 6 7 7 8 9 10 11 12 13 15 16 17 19 20 23 25 27 29 30 30 30 30 30 29 28 27 25 22 18 14 12 12 12
9 8 8 8 7 7 7 7 7 7 7 7 8 8 7 7 7 7 6 6 5 5 4 4 4 4 5 4 3 3 2 3 4 5 5 2 0 1 2 2 3 5 6 6 7 8 8 8 7 6 5 4 5 5 6 6 7 7 7 9 9 10 10 10 11 13 14 15 16 17 20 22 24 25 26 26 26 25 25 24 22 19 17 14 12 12
8 8 8 8 8 8 8 8 9 8 8 8 8 8 8 7 7 7 6 6 6 5 5 4 4 4 4 3 3 3 3 4 5 6 5 3 1 0 2 2 3 5 7 8 8 8 8 8 9 8 7 5 4 5 5 6 6 7 7 8 8 8 7 8 9 10 11 12 12 12 12 13 14 16 18 20 22 23 24 23 22 21 19 17 14 12
8 8 9 8 8 9 9 9 9 9 9 8 8 8 8 8 7 7 6 6 6 6 6 5 5 4 4 3 4 4 6 6 7 7 5 2 1 1 1 1 3 4 7 8 10 10 10 9 9 9 9 7 5 4 4 5 6 7 8 8 8 8 7 8 8 9 9 10 11 10 10 10 10 11 13 18 21 23 23 23 22 22 20 19 17 15
8 8 9 9 9 9 9 9 9 9 9 9 8 8 9 8 8 7 7 7 6 7 7 7 6 6 6 5 4 5 6 7 7 7 5 2 1 2 1 1 2 3 6 8 10 12 12 11 10 9 8 7 6 5 4 4 6 7 8 8 8 8 8 8 8 8 9 10 10 10 9 9 10 11 13 19 21 21 22 22 22 21 21 20 19 18
8 9 9 9 9 9 9 9 9 9 9 9 9 9 9 9 8 8 7 7 7 7 7 6 6 6 8 7 6 6 6 7 7 6 5 2 2 2 1 0 1 2 4 7 10 12 13 13 12 10 7 6 6 7 6 6 6 7 7 8 8 8 8 8 8 8 9 10 10 10 10 9 9 10 11 12 12 13 13 14 16 18 19 19 19 19
9 9 9 9 9 9 8 8 9 9 8 9 9 9 9 9 9 8 7 7 7 7 8 7 6 6 6 7 7 7 6 5 4 3 2 3 4 3 1 1 1 2 3 5 8 10 13 13 12 11 9 8 7 7 6 6 7 7 7 8 9 9 9 8 8 8 9 9 10 10 9 9 8 8 8 7 8 8 9 9 10 12 13 13 15 17
9 9 9 9 9 9 8 9 8 8 8 8 9 9 9 8 8 7 7 7 7 8 8 8 6 5 4 4 6 8 8 6 5 4 4 5 5 4 3 2 2 3 3 4 5 7 10 12 13 13 12 9 8 7 6 6 6 8 9 8 7 7 7 7 7 7 7 9 9 10 9 8 8 8 7 7 7 8 8 7 7 8 9 9 9 11
9 9 9 9 9 9 8 8 8 8 8 8 8 8 8 8 8 8 8 8 8 8 8 8 7 5 3 4 6 9 10 9 9 9 8 8 8 7 5 4 3 3 3 3 4 5 8 12 13 14 12 11 11 10 9 7 7 8 9 8 8 7 7 8 8 8 8 8 9 10 10 9 9 9 8 8 8 7 7 7 7 7 6 5 6 7
9 9 8 8 8 8 8 8 8 8 8 7 7 7 8 8 8 8 8 8 8 8 8 8 7 6 5 6 7 9 11 11 11 11 11 11 11 9 7 5 4 3 3 4 5 6 7 10 13 13 13 13 12 11 9 8 9 9 9 9 10 10 9 9 8 7 8 8 9 9 11 10 9 8 8 8 8 7 8 8 9 8 7 5 5 5
8 8 8 8 8 8 8 8 8 8 8 7 7 7 8 8 8 8 8 8 8 9 9 8 7 6 5 6 7 8 10 11 12 13 12 12 12 11 10 8 6 4 3 5 6 7 7 9 10 11 11 12 13 13 13 11 10 9 9 9 9 8 7 6 5 6 8 8 8 8 9 9 9 8 8 7 7 7 7 9 10 10 8 6 5 5
8 7 7 8 8 8 8 8 8 7 7 8 8 8 8 8 9 9 8 7 8 8 8 8 7 6 6 7 7 8 8 10 12 13 14 14 14 13 12 10 9 6 5 5 6 7 8 8 8 8 7 9 11 12 13 12 11 9 7 6 7 8 7 6 7 7 8 8 8 8 9 9 8 8 8 7 7 6 6 7 7 8 8 7 7 7
7 7 8 8 8 8 8 8 8 8 8 8 8 8 8 9 9 9 8 8 8 8 8 8 6 5 6 7 7 6 6 8 9 10 12 14 16 16 14 12 10 8 7 7 6 7 8 8 8 7 7 8 9 11 12 12 12 11 9 8 9 9 8 7 8 8 9 9 8 8 9 8 8 8 8 7 7 7 6 7 7 7 7 6 7 7
7 8 8 8 8 9 9 9 8 8 8 8 8 8 9 9 8 8 8 8 8 8 8 8 7 6 7 7 6 6 6 7 7 8 8 10 12 13 13 12 11 9 8 9 8 8 8 8 8 9 9 9 9 10 10 11 11 11 10 10 10 9 8 7 7 8 9 9 9 8 8 8 9 9 8 8 7 7 6 7 7 7 6 6 6 6
8 8 8 8 8 8 8 9 8 8 8 8 8 9 9 9 9 8 8 8 8 8 8 8 8 8 8 7 7 7 7 7 7 7 7 8 9 10 11 11 12 12 11 11 11 11 11 9 8 8 9 10 10 9 8 9 10 11 11 11 10 10 9 7 7 7 8 8 8 8 8 8 9 10 9 8 7 6 6 6 6 6 6 6 6 6
9 9 8 8 8 8 8 9 9 9 9 9 8 8 9 9 10 10 8 8 8 8 8 8 8 8 8 8 8 8 8 7 7 7 6 7 7 8 9 9 10 11 12 13 14 15 14 14 12 10 8 8 9 9 9 9 9 9 9 10 10 10 10 8 7 7 7 7 7 7 7 8 9 10 10 9 8 6 6 6 6 6 5 5 5 5
8 8 8 8 8 8 8 9 9 9 9 9 9 8 8 10 11 11 8 8 8 8 8 8 8 8 9 8 8 8 9 8 7 6 6 6 5 5 6 7 9 10 11 12 13 14 15 16 16 15 12 9 8 9 10 9 9 8 8 8 9 9 9 8 7 6 6 6 7 7 6 6 7 8 9 10 9 8 6 6 6 5 5 4 4 4
8 8 8 8 8 8 8 9 9 9 9 9 9 9 8 8 9 9 8 8 8 8 8 8 8 8 9 9 9 9 9 8 7 7 6 5 4 3 3 5 7 8 9 9 10 11 12 13 15 16 17 15 11 9 8 9 9 9 9 8 8 8 9 8 7 6 6 6 7 8 7 6 6 6 8 10 10 9 7 6 5 4 4 3 3 3
9 9 9 8 8 8 8 8 9 9 9 9 9 8 8 8 8 8 8 8 8 8 8 8 8 8 9 9 9 9 9 8 8 8 7 6 5 4 3 2 4 6 7 7 7 7 7 8 9 11 15 18 16 12 6 7 8 9 9 8 7 7 8 7 7 7 7 7 7 7 7 7 6 6 7 9 10 9 8 6 5 3 2 2 3 3
Wind_Direction
270 274 276 271 268 260 240 184 181 275 286 289 288 291 304 316 315 309 304 298 293 288 284 279 274 268 258 247 245 246 248 245 238 228 219 212 205 199 193 189 187 185 184 184 184 185 187 189 190 191 192 193 196 199 203 208 211 212 212 213 213 212 210 209 208 205 200 194 190 188 188 189 190 191 191 191 191 191 191 192 194 197 198 193 187 181
268 274 277 268 263 255 241 189 178 206 254 270 273 273 277 292 302 304 297 289 284 281 279 275 270 263 256 250 243 240 242 243 238 229 220 211 205 199 195 194 195 196 196 196 195 195 195 195 195 195 195 195 195 197 201 206 210 213 214 214 213 212 210 209 209 209 207 200 194 190 188 188 189 190 191 191 190 190 190 191 193 195 197 193 187 180
273 280 284 279 269 256 237 195 184 195 222 247 256 258 257 266 277 286 283 279 277 275 273 269 262 253 246 246 242 239 240 242 241 235 226 215 206 200 196 196 198 201 203 204 204 203 203 202 201 200 198 197 196 197 200 204 208 212 214 215 213 211 208 207 207 209 210 206 200 194 189 188 189 190 191 191 190 190 190 190 192 194 195 192 185 179
270 280 297 308 297 273 247 210 194 196 208 236 250 255 254 257 261 264 262 265 267 269 268 263 255 244 236 236 237 239 241 243 242 240 235 223 212 204 197 196 198 201 204 206 207 208 208 207 206 205 202 199 198 197 199 203 207 210 213 214 213 210 206 205 205 208 211 211 207 201 194 190 189 190 191 191 190 189 189 189 191 192 193 189 183 178
263 275 293 301 296 282 266 243 225 219 226 248 260 264 261 258 257 256 252 252 256 260 263 259 252 242 233 231 234 239 244 246 244 242 238 230 221 211 202 198 198 199 203 206 208 210 211 211 210 209 206 202 199 197 197 200 204 208 212 214 213 210 206 205 206 208 211 214 213 209 202 196 193 192 192 190 189 188 188 189 190 190 190 186 183 179
263 269 276 278 282 282 277 263 257 257 264 267 269 268 266 259 258 259 260 254 253 254 257 255 249 241 235 234 237 244 248 249 248 244 240 234 227 219 210 203 199 199 201 205 208 211 213 213 213 211 209 205 201 197 195 197 201 204 209 212 212 210 206 206 207 209 211 214 215 214 210 203 198 195 194 191 189 188 188 189 190 189 186 184 183 182
257 261 269 272 272 270 267 263 260 258 259 264 265 265 265 261 257 257 261 265 265 263 260 253 245 239 236 237 241 247 252 253 252 248 242 236 231 224 217 209 203 200 201 203 206 209 212 214 214 213 211 207 203 198 195 195 198 201 205 209 210 209 206 206 207 209 211 213 215 216 215 210 205 200 197 193 190 189 190 191 190 188 184 184 185 186
281 289 291 283 277 272 266 261 258 254 251 255 259 262 265 266 261 256 255 265 271 274 273 263 251 241 236 238 240 243 247 254 254 250 244 237 232 227 221 214 207 203 201 202 204 207 210 212 214 214 212 208 204 200 196 195 195 198 201 204 206 206 205 205 206 208 211 213 215 216 217 215 212 207 203 196 192 191 192 193 191 189 186 187 189 191
356 357 349 339 327 317 313 309 305 295 282 267 260 258 262 271 273 270 261 261 265 270 277 278 277 270 259 243 230 225 237 247 252 251 248 238 231 226 223 218 211 206 202 201 202 204 206 209 212 213 212 209 206 202 198 195 194 195 197 199 201 202 201 203 205 207 210 211 212 214 215 216 216 214 211 204 200 197 198 198 196 193 190 193 196 198
4 3 357 353 352 354 356 355 352 343 330 309 290 275 281 306 312 310 302 287 272 264 269 278 285 290 293 282 241 205 241 255 255 252 249 241 233 227 223 220 214 209 204 202 201 201 203 205 209 211 212 210 207 203 199 195 193 191 191 193 194 195 196 199 202 206 208 208 208 209 212 213 215 216 217 213 208 205 205 206 205 202 200 202 204 205
7 3 354 352 359 9 11 0 353 346 341 337 339 352 7 2 350 336 325 315 304 288 274 273 278 287 298 304 312 338 324 296 278 261 248 239 234 228 223 219 216 211 206 203 201 199 199 201 204 207 209 210 208 204 199 193 189 187 186 186 187 188 189 193 197 201 205 205 205 206 208 210 211 212 212 211 207 205 206 209 211 211 210 211 211 210
6 360 352 354 3 11 11 358 349 346 348 352 357 2 3 2 355 340 325 316 311 304 293 283 274 269 270 287 308 334 347 329 310 286 256 239 230 225 222 219 215 211 207 203 200 198 197 197 199 202 205 207 207 205 200 193 186 182 180 180 181 182 184 188 192 196 199 201 203 204 206 206 204 202 200 199 197 196 200 206 210 214 216 217 216 213
7 360 353 0 7 10 6 358 356 356 0 4 1 355 346 343 339 331 317 310 308 307 304 296 285 272 256 246 263 319 335 328 315 296 265 238 224 218 216 216 214 210 205 202 200 198 195 195 196 198 200 204 205 204 201 193 185 179 176 176 176 178 180 184 187 191 194 197 199 201 200 197 194 191 189 187 185 185 189 197 204 210 216 216 215 211
6 1 359 5 9 9 6 2 359 359 1 1 355 344 332 328 328 327 321 313 311 310 309 302 294 285 280 261 224 212 288 315 314 303 276 251 225 213 210 213 212 208 201 200 199 196 191 191 193 195 197 200 203 203 201 193 185 179 175 174 173 174 176 180 184 187 190 194 195 195 191 187 184 183 183 180 178 177 177 182 189 196 203 202 200 195
6 2 2 4 5 5 5 2 358 354 352 348 341 333 327 327 329 331 328 320 315 312 310 305 299 292 288 285 268 226 210 243 307 314 301 294 277 240 215 214 211 207 201 200 198 192 184 186 189 192 193 197 199 200 199 194 186 180 177 173 171 171 172 175 179 183 187 190 190 187 182 180 179 178 177 173 168 162 159 157 158 159 163 162 161 159
6 3 2 360 359 359 0 357 353 348 343 339 336 333 332 331 331 330 326 318 313 311 309 308 307 304 301 305 306 296 236 140 88 3 324 310 305 287 238 212 206 203 200 198 194 188 181 185 188 189 190 193 195 195 195 194 188 183 180 175 172 169 167 169 173 178 183 185 183 180 176 175 174 172 168 161 154 147 141 137 133 130 127 127 127 128
7 5 360 355 352 351 351 350 348 343 337 334 332 331 328 325 323 319 315 312 309 308 308 310 311 310 314 327 331 325 308 35 56 41 354 313 309 303 279 208 195 190 187 186 185 184 181 184 186 188 188 188 189 191 192 191 189 186 183 179 175 171 167 167 170 175 178 179 177 173 171 169 166 161 155 147 141 136 132 129 125 122 119 118 117 118
7 4 358 352 348 344 343 344 343 339 335 334 331 326 320 314 309 307 306 306 306 306 307 307 306 303 303 316 320 320 316 24 40 30 360 319 306 303 296 203 173 162 150 137 147 176 182 183 185 185 184 182 183 186 188 189 188 187 185 183 180 176 172 173 175 177 177 173 169 165 161 158 153 148 143 138 134 131 130 127 125 122 120 119 118 117
5 3 358 350 343 339 340 343 341 338 335 333 330 325 320 315 310 307 303 303 302 302 302 303 301 297 289 286 293 303 320 32 41 29 1 330 315 312 321 129 132 125 102 60 14 342 200 181 180 177 174 175 177 180 183 185 185 186 186 185 183 182 180 180 180 177 170 161 155 150 146 143 140 136 133 131 129 128 127 126 124 122 120 119 118 117
4 3 358 345 337 334 338 341 339 334 330 327 324 322 319 318 315 312 306 305 302 298 296 295 296 298 304 310 315 320 338 31 41 33 5 326 308 310 337 76 106 103 86 48 357 339 8 154 162 164 165 168 171 174 177 179 180 180 181 181 182 182 181 179 173 163 150 143 138 134 132 131 129 127 125 124 123 123 122 121 120 119 118 117 117 116
1 359 353 339 332 331 335 338 333 327 324 323 322 320 320 319 316 313 309 308 304 299 294 291 297 308 322 325 324 326 343 32 44 38 6 322 307 311 339 76 97 97 86 54 12 1 31 108 144 158 161 164 166 168 170 171 171 171 170 169 168 167 164 159 151 143 135 131 128 126 124 123 121 119 117 116 115 115 115 115 115 115 115 114 114 114
357 351 341 331 327 327 332 328 324 321 320 322 323 325 326 321 315 311 309 307 302 298 294 292 298 305 309 306 304 304 326 51 63 53 9 305 297 302 330 92 101 96 85 63 34 25 43 76 120 150 159 159 160 161 162 161 160 158 155 151 148 146 144 139 136 132 129 127 125 122 120 118 116 114 112 111 110 110 110 110 111 111 111 112 112 112
352 345 334 329 327 327 329 325 320 317 319 321 325 327 323 315 308 303 302 300 297 294 293 292 292 290 286 283 282 283 297 70 80 82 39 275 276 280 294 108 98 91 82 68 57 54 59 64 85 129 148 149 149 150 150 149 148 145 142 139 136 134 133 131 129 128 127 125 123 121 119 117 114 112 111 110 109 109 109 109 109 109 109 109 109 109
355 348 340 336 336 336 336 330 326 323 323 326 328 327 320 310 301 295 292 289 287 285 285 287 286 283 278 275 273 272 306 69 79 87 97 268 270 269 243 119 102 94 83 72 67 69 71 64 60 82 127 135 137 137 137 137 136 134 133 132 130 129 128 127 126 125 125 124 122 121 119 117 115 114 112 111 110 110 109 109 109 108 107 107 107 107
2 359 354 352 353 355 355 349 344 341 341 340 338 335 329 317 307 297 289 285 283 281 278 279 280 282 283 282 278 279 8 67 82 92 98 234 254 248 177 119 106 98 88 75 71 73 76 68 59 60 86 116 124 126 127 127 127 127 127 126 126 126 125 124 124 123 123 122 121 120 119 118 117 115 114 113 112 111 110 109 108 106 105 104 104 104
7 5 3 1 1 1 0 356 352 351 352 352 352 350 344 329 319 313 311 315 315 311 302 292 285 282 284 284 283 295 7 54 72 84 98 163 195 189 145 114 106 101 95 83 74 74 78 73 67 62 66 95 112 118 119 120 121 121 122 122 122 122 122 122 122 122 122 121 120 120 119 118 117 116 115 114 113 111 110 108 106 104 103 101 101 101
6 6 5 4 3 2 1 358 354 353 354 356 359 0 356 343 337 339 347 347 341 331 318 305 294 288 284 279 279 295 15 45 43 37 47 153 175 168 141 121 112 105 99 87 77 75 78 77 74 70 68 76 94 106 112 114 115 116 117 118 119 119 120 120 120 120 120 120 120 119 118 118 117 116 116 114 113 111 110 107 105 103 101 100 99 100
4 5 5 4 3 2 0 357 353 352 354 357 0 2 1 353 350 352 351 342 334 324 311 299 293 290 286 283 289 317 2 37 14 354 345 94 158 161 147 130 119 110 103 94 83 76 75 75 74 74 73 75 84 94 102 105 108 111 112 114 115 116 117 117 118 118 119 119 119 119 118 118 117 116 115 114 113 111 109 107 105 103 100 99 99 99
0 1 2 2 1 360 358 354 351 350 353 357 360 2 2 357 353 349 340 333 328 323 314 305 301 298 298 301 305 314 336 22 353 333 330 42 141 158 154 136 125 116 110 105 93 80 71 68 69 72 76 79 82 87 92 96 100 103 105 108 110 112 114 115 115 116 117 117 117 117 117 117 116 115 114 113 112 110 109 107 105 103 100 100 100 102
356 358 359 359 358 356 353 350 347 348 351 355 357 359 359 354 346 338 330 329 329 327 322 316 312 310 309 304 291 268 258 1 343 330 333 44 140 161 157 138 131 126 121 115 105 91 77 63 57 63 75 80 82 84 86 90 93 97 99 102 104 107 110 111 112 113 114 114 115 115 115 115 114 113 112 111 110 109 108 107 106 104 102 102 102 102
353 354 354 354 352 350 348 346 345 345 347 350 352 354 353 348 341 334 330 330 330 327 322 317 315 313 311 303 288 261 229 352 341 336 354 44 144 176 167 143 136 132 129 123 118 111 103 81 56 54 69 78 81 81 83 87 92 95 98 98 99 102 105 107 109 109 110 110 111 111 111 111 111 110 110 109 108 108 107 106 106 105 106 104 102 100
351 351 352 350 348 346 345 345 344 343 344 346 346 346 345 344 342 339 335 332 327 323 318 313 311 309 306 303 300 298 306 330 332 335 353 30 118 201 196 152 138 133 127 122 121 120 118 113 95 72 69 75 77 77 78 84 90 96 101 100 100 101 103 104 105 105 106 106 106 107 107 107 107 107 107 107 107 107 107 107 107 107 107 105 102 99
349 349 350 348 346 344 344 344 344 344 345 343 342 341 340 340 340 339 337 332 326 320 314 312 310 308 304 298 293 290 293 297 319 330 341 1 75 187 207 163 140 129 121 113 111 111 112 115 113 99 78 71 68 68 68 74 83 92 100 102 103 104 104 103 103 103 103 103 103 102 102 103 104 105 105 106 106 106 107 107 107 107 107 106 105 103
348 348 349 348 346 345 345 346 347 347 347 344 342 340 337 336 336 336 335 331 325 318 311 307 306 307 308 306 299 289 278 281 303 318 331 340 5 164 182 171 145 130 122 115 109 107 105 109 110 107 93 72 59 54 53 59 67 75 86 95 100 103 103 102 101 101 101 100 99 99 99 100 101 102 104 105 106 107 108 108 108 108 109 109 109 109
348 349 351 350 348 347 347 349 349 349 348 345 341 339 336 334 332 331 332 330 325 319 310 302 296 295 297 303 302 296 286 284 297 306 314 315 327 129 158 173 151 135 127 123 120 116 111 110 112 112 110 93 69 52 45 50 56 61 64 74 81 87 90 93 95 97 98 97 97 97 97 98 99 101 103 105 107 108 109 109 109 110 110 111 112 113
350 351 352 351 350 349 349 350 349 348 346 343 340 337 334 332 330 329 329 327 324 320 315 306 296 285 277 273 273 276 279 281 287 290 289 289 334 38 125 183 164 143 131 127 124 121 118 114 112 110 109 105 93 72 53 56 60 62 61 63 66 69 71 76 84 90 94 94 95 96 97 98 99 101 104 107 107 108 108 108 108 109 109 110 110 110
353 353 352 352 351 350 349 349 348 346 344 340 337 335 333 330 329 327 326 326 324 321 318 312 303 294 287 276 265 263 267 272 275 274 263 237 93 54 12 217 176 150 137 131 127 124 120 117 114 110 104 104 104 102 97 84 74 69 65 64 64 65 64 68 74 82 89 91 93 95 97 99 102 104 106 107 107 106 106 106 106 106 106 105 105 106
356 354 352 351 350 349 348 347 345 344 341 337 334 332 331 328 327 326 326 326 326 325 322 317 308 301 300 300 294 283 273 270 264 255 237 183 113 78 337 249 166 146 138 133 131 129 125 122 119 115 106 100 102 107 113 105 93 84 77 71 67 65 63 65 70 77 84 89 91 92 92 94 97 100 102 103 103 101 102 101 101 101 101 100 100 100
356 353 350 350 349 348 346 344 342 339 336 333 331 330 329 327 327 327 328 329 330 330 327 320 310 302 302 312 321 324 318 302 286 260 186 112 94 80 37 77 103 114 121 130 132 131 127 124 122 120 117 111 107 104 103 102 101 101 97 82 70 62 57 60 65 72 80 86 87 86 84 84 86 89 92 95 96 97 98 98 98 99 99 97 96 96
354 351 348 347 345 344 342 340 337 334 331 330 329 330 332 332 332 333 336 338 339 337 332 326 316 306 305 332 351 358 358 355 5 30 67 73 73 71 65 71 86 100 110 121 126 126 123 120 119 118 119 118 116 112 106 104 107 109 108 96 83 70 59 60 62 67 74 81 85 86 84 81 81 83 85 86 89 92 95 97 97 98 99 102 102 101
352 349 345 343 341 339 337 335 333 332 332 331 332 336 339 340 341 341 343 345 347 346 343 338 332 327 331 2 14 16 13 15 24 36 53 63 69 72 69 63 64 76 97 104 107 110 114 116 117 118 118 117 115 112 109 106 104 103 100 99 99 94 81 74 72 73 75 80 84 88 89 86 83 81 81 81 81 84 89 93 94 92 88 93 102 108
351 348 342 339 337 335 334 333 334 335 336 337 340 344 347 347 346 347 348 350 351 351 349 346 344 345 355 15 23 23 20 21 27 37 50 60 66 71 70 62 55 57 79 89 90 94 102 111 116 120 124 124 122 117 110 103 96 93 94 102 105 101 88 80 78 81 84 84 86 88 90 88 85 82 82 82 81 80 81 84 86 86 82 79 82 91
349 344 338 336 333 332 332 335 339 342 345 347 350 352 352 351 350 350 352 354 355 354 352 348 345 349 4 20 25 25 22 23 28 36 46 54 62 67 69 63 56 54 73 90 92 91 90 95 102 111 121 124 124 121 118 111 103 98 100 110 113 111 102 97 93 90 89 88 87 87 88 88 86 82 78 76 74 71 70 72 74 75 75 76 73 71
345 341 338 337 336 337 340 345 347 348 350 352 354 354 353 353 353 354 356 357 358 358 357 350 347 353 14 26 29 27 22 24 29 35 43 50 57 64 68 64 57 52 59 85 97 100 95 90 92 98 108 113 115 116 116 115 113 109 106 104 103 104 109 115 113 105 95 91 89 88 89 90 88 83 76 71 67 64 65 67 67 68 69 75 79 81
347 345 344 343 344 346 349 350 349 350 353 355 356 356 354 354 356 358 360 359 1 3 3 356 355 3 19 24 26 26 24 25 29 34 40 47 53 60 65 64 61 56 55 64 78 93 102 101 101 99 99 101 105 109 114 116 116 113 108 98 91 87 90 98 104 105 104 99 97 96 97 98 95 89 81 74 69 66 67 71 74 75 74 77 83 88
353 351 349 349 349 350 351 350 350 351 356 358 359 358 356 355 357 360 2 3 4 6 6 5 10 18 23 21 21 23 25 26 28 32 37 43 48 54 60 63 64 63 63 62 62 67 77 92 102 107 105 101 98 99 106 112 114 113 110 106 102 98 95 93 95 100 104 104 105 106 108 105 100 94 89 82 75 68 64 68 72 75 78 79 82 85
357 355 352 351 351 351 351 351 352 354 358 0 0 359 358 358 359 2 4 5 7 9 10 13 19 24 26 24 23 23 26 26 27 29 35 42 49 56 62 65 66 67 69 69 67 64 62 66 76 93 107 107 104 100 97 102 107 111 115 115 113 109 104 100 99 100 102 105 109 113 115 108 102 98 97 92 85 75 65 61 62 65 70 75 79 82
358 356 353 352 352 353 352 354 355 356 359 1 1 0 1 2 4 6 6 6 8 11 14 18 22 25 27 26 24 24 26 27 27 27 30 38 47 58 67 72 74 73 73 73 73 70 66 60 57 59 76 94 104 107 104 100 101 105 111 112 111 108 105 103 102 100 99 101 106 112 114 111 110 110 108 101 93 82 71 62 56 52 53 63 73 79
359 359 355 355 355 356 354 355 356 358 360 1 1 1 1 4 7 9 8 8 10 14 18 20 23 26 28 26 24 22 24 26 25 25 23 25 35 52 70 80 85 85 84 81 78 76 71 65 58 53 49 61 82 98 103 101 99 98 99 102 104 105 104 101 98 94 92 92 93 96 98 103 109 112 112 106 99 92 83 72 61 51 44 50 62 73
0 1 358 357 358 359 355 356 358 359 0 2 2 1 1 4 7 9 9 11 14 17 20 22 25 28 30 27 24 22 22 23 23 22 18 12 12 27 59 85 96 98 96 91 87 83 78 70 61 54 47 47 55 73 94 97 97 94 91 92 96 100 102 99 95 90 87 87 87 88 89 91 96 101 105 106 104 101 95 86 73 58 41 42 53 67
359 1 0 359 360 0 358 358 360 1 1 3 3 3 3 6 8 10 11 13 16 18 19 22 26 30 32 29 26 24 23 24 24 22 15 5 1 4 19 69 100 108 107 104 99 93 88 82 70 56 44 39 40 46 75 91 97 97 92 89 90 95 98 96 92 86 83 83 85 87 90 92 95 100 106 109 109 108 105 101 93 79 49 43 50 61